Time,TemperatureF,DewpointF,PressureIn,WindDirection,WindDirectionDegrees,WindSpeedMPH,WindSpeedGustMPH,Humidity,HourlyPrecipIn,Conditions,Clouds,dailyrainin,SoftwareType,DateUTC
2013-05-27 00:00:00,67.6,59.8,30.13,ENE,68,0.0,0.0,76,0.00,,,0.00,WeatherDisplay:10.37,2013-05-27 04:00:00,
2013-05-27 00:14:00,67.6,60.5,30.14,ENE,68,0.0,0.0,78,0.00,,,0.00,WeatherDisplay:10.37,2013-05-27 04:14:00,
2013-05-27 00:30:00,67.3,60.2,30.13,ENE,68,0.0,0.0,78,0.00,,,0.00,WeatherDisplay:10.37,2013-05-27 04:30:00,
2013-05-27 00:45:00,67.1,60.4,30.13,ENE,68,0.0,0.0,79,0.00,,,0.00,WeatherDisplay:10.37,2013-05-27 04:45:00,
2013-05-27 00:59:00,67.1,60.7,30.13,ENE,68,0.0,0.0,80,0.00,,,0.00,WeatherDisplay:10.37,2013-05-27 04:59:00,
2013-05-27 01:14:00,66.9,60.5,30.13,ENE,68,0.0,0.0,80,0.00,,,0.00,WeatherDisplay:10.37,2013-05-27 05:14:00,
2013-05-27 01:30:00,66.6,60.6,30.12,ENE,68,0.0,0.0,81,0.00,,,0.00,WeatherDisplay:10.37,2013-05-27 05:30:00,
2013-05-27 01:44:00,66.6,60.9,30.12,ENE,68,0.0,0.0,82,0.00,,,0.00,WeatherDisplay:10.37,2013-05-27 05:44:00,
2013-05-27 01:59:00,66.3,60.6,30.12,ENE,68,0.0,0.0,82,0.00,,,0.00,WeatherDisplay:10.37,2013-05-27 05:59:00,
2013-05-27 02:14:00,65.8,60.2,30.12,ENE,68,0.0,0.0,82,0.00,,,0.00,WeatherDisplay:10.37,2013-05-27 06:14:00,
2013-05-27 02:30:00,65.2,59.6,30.11,ENE,68,0.0,0.0,82,0.00,,,0.00,WeatherDisplay:10.37,2013-05-27 06:30:00,
2013-05-27 02:44:00,64.8,59.9,30.11,ENE,68,0.0,0.0,84,0.00,,,0.00,WeatherDisplay:10.37,2013-05-27 06:44:00,
2013-05-27 02:59:00,64.7,59.8,30.11,ENE,68,0.0,0.0,84,0.00,,,0.00,WeatherDisplay:10.37,2013-05-27 06:59:00,
2013-05-27 03:14:00,64.5,59.9,30.11,ENE,68,0.0,0.0,85,0.00,,,0.00,WeatherDisplay:10.37,2013-05-27 07:14:00,
2013-05-27 03:30:00,64.6,60.4,30.11,ENE,68,0.0,0.0,86,0.00,,,0.00,WeatherDisplay:10.37,2013-05-27 07:30:00,
2013-05-27 03:45:00,64.7,60.7,30.10,ENE,68,0.0,0.0,87,0.00,,,0.00,WeatherDisplay:10.37,2013-05-27 07:45:00,
2013-05-27 03:59:00,64.8,60.8,30.10,ENE,68,0.0,0.0,87,0.00,,,0.00,WeatherDisplay:10.37,2013-05-27 07:59:00,
2013-05-27 04:14:00,65.0,61.0,30.10,ENE,68,0.0,0.0,87,0.00,,,0.00,WeatherDisplay:10.37,2013-05-27 08:14:00,
2013-05-27 04:30:00,64.8,60.8,30.10,ENE,68,0.0,0.0,87,0.00,,,0.00,WeatherDisplay:10.37,2013-05-27 08:30:00,
2013-05-27 04:44:00,65.0,61.4,30.09,ENE,68,0.0,0.0,88,0.00,,,0.00,WeatherDisplay:10.37,2013-05-27 08:44:00,
2013-05-27 04:59:00,65.0,61.4,30.09,ENE,68,0.0,0.0,88,0.00,,,0.00,WeatherDisplay:10.37,2013-05-27 08:59:00,
2013-05-27 05:14:00,64.7,61.1,30.09,ENE,68,0.0,0.0,88,0.00,,,0.00,WeatherDisplay:10.37,2013-05-27 09:14:00,
2013-05-27 05:30:00,65.0,61.4,30.10,ENE,68,0.0,0.0,88,0.00,,,0.00,WeatherDisplay:10.37,2013-05-27 09:30:00,
2013-05-27 05:44:00,64.6,61.0,30.10,ENE,68,0.0,0.0,88,0.00,,,0.00,WeatherDisplay:10.37,2013-05-27 09:44:00,
2013-05-27 05:59:00,64.5,61.2,30.10,ENE,68,0.0,0.0,89,0.00,CLR,,0.00,WeatherDisplay:10.37,2013-05-27 09:59:00,
2013-05-27 06:14:00,64.3,61.0,30.10,ENE,68,0.0,0.0,89,0.00,CLR,,0.00,WeatherDisplay:10.37,2013-05-27 10:14:00,
2013-05-27 06:30:00,64.3,61.0,30.10,ENE,68,0.0,0.0,89,0.00,CLR,,0.00,WeatherDisplay:10.37,2013-05-27 10:30:00,
2013-05-27 06:44:00,64.5,61.2,30.11,ENE,68,0.0,0.0,89,0.00,CLR,,0.00,WeatherDisplay:10.37,2013-05-27 10:44:00,
2013-05-27 06:59:00,64.7,61.4,30.11,ENE,68,0.0,0.0,89,0.00,CLR,,0.00,WeatherDisplay:10.37,2013-05-27 10:59:00,
2013-05-27 07:14:00,65.0,61.7,30.12,ENE,68,0.0,0.0,89,0.00,CLR,,0.00,WeatherDisplay:10.37,2013-05-27 11:14:00,
2013-05-27 07:29:00,65.6,62.3,30.12,ENE,68,0.0,0.0,89,0.00,CLR,,0.00,WeatherDisplay:10.37,2013-05-27 11:29:00,
2013-05-27 07:44:00,66.6,63.3,30.12,ENE,68,0.0,0.0,89,0.00,CLR,,0.00,WeatherDisplay:10.37,2013-05-27 11:44:00,
2013-05-27 07:59:00,67.7,63.7,30.12,ENE,68,0.0,0.0,87,0.00,CLR,,0.00,WeatherDisplay:10.37,2013-05-27 11:59:00,
2013-05-27 08:14:00,69.1,64.1,30.12,ENE,68,0.0,0.0,84,0.00,CLR,,0.00,WeatherDisplay:10.37,2013-05-27 12:14:00,
2013-05-27 08:30:00,70.8,64.0,30.13,ESE,108,0.0,0.0,79,0.00,CLR,,0.00,WeatherDisplay:10.37,2013-05-27 12:30:00,
2013-05-27 08:44:00,73.3,64.5,30.12,ESE,105,0.0,5.0,74,0.00,CLR,,0.00,WeatherDisplay:10.37,2013-05-27 12:44:00,
2013-05-27 08:59:00,75.4,62.8,30.12,NE,41,0.0,7.0,65,0.00,CLR,,0.00,WeatherDisplay:10.37,2013-05-27 12:59:00,
2013-05-27 09:14:00,77.4,62.9,30.13,ENE,73,1.0,10.0,61,0.00,CLR,,0.00,WeatherDisplay:10.37,2013-05-27 13:14:00,
2013-05-27 09:30:00,77.9,62.4,30.13,ENE,64,0.0,7.0,59,0.00,CLR,,0.00,WeatherDisplay:10.37,2013-05-27 13:30:00,
2013-05-27 09:44:00,78.8,62.3,30.13,NE,38,0.0,8.0,57,0.00,CLR,,0.00,WeatherDisplay:10.37,2013-05-27 13:44:00,
2013-05-27 09:59:00,79.9,61.8,30.13,NNE,28,1.0,12.0,54,0.00,CLR,,0.00,WeatherDisplay:10.37,2013-05-27 13:59:00,
2013-05-27 10:14:00,81.0,61.7,30.13,East,94,0.0,12.0,52,0.00,CLR,,0.00,WeatherDisplay:10.37,2013-05-27 14:14:00,
2013-05-27 10:30:00,82.2,62.3,30.13,ENE,63,1.0,6.0,51,0.00,CLR,,0.00,WeatherDisplay:10.37,2013-05-27 14:30:00,
2013-05-27 10:44:00,81.4,61.0,30.13,NNE,16,3.0,12.0,50,0.00,CLR,,0.00,WeatherDisplay:10.37,2013-05-27 14:44:00,
2013-05-27 10:59:00,82.6,60.9,30.13,NNE,29,1.0,9.0,48,0.00,CLR,,0.00,WeatherDisplay:10.37,2013-05-27 14:59:00,
2013-05-27 11:14:00,83.0,61.3,30.13,East,83,0.0,7.0,48,0.00,CLR,,0.00,WeatherDisplay:10.37,2013-05-27 15:14:00,
2013-05-27 11:30:00,83.8,61.4,30.13,NNE,23,0.0,12.0,47,0.00,CLR,,0.00,WeatherDisplay:10.37,2013-05-27 15:30:00,
2013-05-27 11:44:00,83.8,60.2,30.13,ENE,78,1.0,10.0,45,0.00,CLR,,0.00,WeatherDisplay:10.37,2013-05-27 15:44:00,
2013-05-27 11:59:00,84.1,59.9,30.13,ENE,73,0.0,9.0,44,0.00,CLR,,0.00,WeatherDisplay:10.37,2013-05-27 15:59:00,
2013-05-27 12:14:00,85.2,60.2,30.13,NNE,26,0.0,13.0,43,0.00,CLR,,0.00,WeatherDisplay:10.37,2013-05-27 16:14:00,
2013-05-27 12:30:00,85.3,58.2,30.13,ENE,78,3.0,12.0,40,0.00,CLR,,0.00,WeatherDisplay:10.37,2013-05-27 16:30:00,
2013-05-27 12:44:00,84.5,59.5,30.13,ESE,104,2.0,12.0,43,0.00,CLR,,0.00,WeatherDisplay:10.37,2013-05-27 16:44:00,
2013-05-27 12:59:00,85.9,60.1,30.13,East,96,2.0,9.0,42,0.00,CLR,,0.00,WeatherDisplay:10.37,2013-05-27 16:59:00,
2013-05-27 13:14:00,85.8,58.6,30.12,NE,55,2.0,9.0,40,0.00,CLR,,0.00,WeatherDisplay:10.37,2013-05-27 17:14:00,
2013-05-27 13:29:00,86.7,60.2,30.12,NNE,21,3.0,12.0,41,0.00,CLR,,0.00,WeatherDisplay:10.37,2013-05-27 17:29:00,
2013-05-27 13:44:00,87.2,59.2,30.11,NNE,15,2.0,9.0,39,0.00,CLR,,0.00,WeatherDisplay:10.37,2013-05-27 17:44:00,
2013-05-27 13:59:00,87.1,59.2,30.11,NNE,31,0.0,10.0,39,0.00,CLR,,0.00,WeatherDisplay:10.37,2013-05-27 17:59:00,
2013-05-27 14:14:00,88.1,59.3,30.10,North,4,1.0,8.0,38,0.00,CLR,,0.00,WeatherDisplay:10.37,2013-05-27 18:14:00,
2013-05-27 14:30:00,87.8,58.3,30.10,ENE,76,1.0,9.0,37,0.00,CLR,,0.00,WeatherDisplay:10.37,2013-05-27 18:30:00,
2013-05-27 14:44:00,87.1,58.4,30.10,ENE,59,2.0,8.0,38,0.00,CLR,,0.00,WeatherDisplay:10.37,2013-05-27 18:44:00,
2013-05-27 14:59:00,87.4,59.4,30.10,ENE,70,1.0,8.0,39,0.00,CLR,,0.00,WeatherDisplay:10.37,2013-05-27 18:59:00,
2013-05-27 15:14:00,88.0,59.9,30.09,NNE,26,0.0,8.0,39,0.00,CLR,,0.00,WeatherDisplay:10.37,2013-05-27 19:14:00,
2013-05-27 15:30:00,88.0,59.2,30.08,NNE,20,0.0,8.0,38,0.00,CLR,,0.00,WeatherDisplay:10.37,2013-05-27 19:30:00,
2013-05-27 15:44:00,87.8,59.8,30.08,ENE,64,0.0,8.0,39,0.00,CLR,,0.00,WeatherDisplay:10.37,2013-05-27 19:44:00,
2013-05-27 15:59:00,87.6,60.3,30.08,ENE,60,0.0,8.0,40,0.00,CLR,,0.00,WeatherDisplay:10.37,2013-05-27 19:59:00,
2013-05-27 16:14:00,86.5,59.3,30.07,ESE,112,0.0,9.0,40,0.00,CLR,,0.00,WeatherDisplay:10.37,2013-05-27 20:14:00,
2013-05-27 16:30:00,87.8,59.0,30.07,East,83,1.0,6.0,38,0.00,CLR,,0.00,WeatherDisplay:10.37,2013-05-27 20:30:00,
2013-05-27 16:44:00,86.3,60.5,30.07,NNE,32,0.0,6.0,42,0.00,CLR,,0.00,WeatherDisplay:10.37,2013-05-27 20:44:00,
2013-05-27 16:59:00,86.3,60.5,30.06,East,100,0.0,7.0,42,0.00,CLR,,0.00,WeatherDisplay:10.37,2013-05-27 20:59:00,
2013-05-27 17:14:00,84.9,59.9,30.06,SE,134,0.0,8.0,43,0.00,CLR,,0.00,WeatherDisplay:10.37,2013-05-27 21:14:00,
2013-05-27 17:29:00,85.3,60.3,30.05,ENE,74,0.0,7.0,43,0.00,CLR,,0.00,WeatherDisplay:10.37,2013-05-27 21:29:00,
2013-05-27 17:44:00,84.5,60.2,30.05,East,96,0.0,9.0,44,0.00,CLR,,0.00,WeatherDisplay:10.37,2013-05-27 21:44:00,
2013-05-27 17:59:00,83.9,60.9,30.05,East,79,1.0,9.0,46,0.00,CLR,,0.00,WeatherDisplay:10.37,2013-05-27 21:59:00,
2013-05-27 18:14:00,83.4,60.5,30.06,ESE,111,0.0,7.0,46,0.00,CLR,,0.00,WeatherDisplay:10.37,2013-05-27 22:14:00,
2013-05-27 18:30:00,82.6,60.9,30.05,East,82,2.0,12.0,48,0.00,CLR,,0.00,WeatherDisplay:10.37,2013-05-27 22:30:00,
2013-05-27 18:44:00,81.8,61.3,30.05,ENE,70,0.0,9.0,50,0.00,CLR,,0.00,WeatherDisplay:10.37,2013-05-27 22:44:00,
2013-05-27 18:59:00,80.7,62.0,30.06,ENE,65,0.0,9.0,53,0.00,CLR,,0.00,WeatherDisplay:10.37,2013-05-27 22:59:00,
2013-05-27 19:14:00,79.9,61.8,30.06,NE,34,0.0,8.0,54,0.00,CLR,,0.00,WeatherDisplay:10.37,2013-05-27 23:14:00,
2013-05-27 19:29:00,79.0,61.5,30.06,NNE,21,2.0,8.0,55,0.00,CLR,,0.00,WeatherDisplay:10.37,2013-05-27 23:29:00,
2013-05-27 19:44:00,77.7,61.7,30.07,NNE,31,0.0,7.0,58,0.00,CLR,,0.00,WeatherDisplay:10.37,2013-05-27 23:44:00,
2013-05-27 19:59:00,77.0,62.0,30.07,East,92,0.0,7.0,60,0.00,CLR,,0.00,WeatherDisplay:10.37,2013-05-27 23:59:00,
2013-05-27 20:14:00,76.2,62.2,30.07,NE,56,0.0,7.0,62,0.00,CLR,,0.00,WeatherDisplay:10.37,2013-05-28 00:14:00,
2013-05-27 20:29:00,75.6,62.1,30.07,East,82,3.0,12.0,63,0.00,CLR,,0.00,WeatherDisplay:10.37,2013-05-28 00:29:00,
2013-05-27 20:44:00,75.1,62.5,30.07,ENE,68,0.0,5.0,65,0.00,CLR,,0.00,WeatherDisplay:10.37,2013-05-28 00:44:00,
2013-05-27 20:59:00,74.6,62.5,30.08,NE,43,0.0,0.0,66,0.00,,,0.00,WeatherDisplay:10.37,2013-05-28 00:59:00,
2013-05-27 21:14:00,74.0,62.3,30.08,East,99,0.0,6.0,67,0.00,,,0.00,WeatherDisplay:10.37,2013-05-28 01:14:00,
2013-05-27 21:29:00,73.5,62.7,30.08,East,83,0.0,0.0,69,0.00,,,0.00,WeatherDisplay:10.37,2013-05-28 01:29:00,
2013-05-27 21:44:00,73.0,63.0,30.09,East,80,0.0,0.0,71,0.00,,,0.00,WeatherDisplay:10.37,2013-05-28 01:44:00,
2013-05-27 21:59:00,72.7,63.1,30.09,SE,134,0.0,0.0,72,0.00,,,0.00,WeatherDisplay:10.37,2013-05-28 01:59:00,
2013-05-27 22:14:00,72.3,63.2,30.10,SE,134,0.0,4.0,73,0.00,,,0.00,WeatherDisplay:10.37,2013-05-28 02:14:00,
2013-05-27 22:29:00,72.0,63.6,30.10,ESE,105,0.0,0.0,75,0.00,,,0.00,WeatherDisplay:10.37,2013-05-28 02:29:00,
2013-05-27 22:44:00,71.7,63.4,30.10,North,360,0.0,2.0,75,0.00,,,0.00,WeatherDisplay:10.37,2013-05-28 02:44:00,
2013-05-27 22:59:00,71.5,63.5,30.10,North,360,0.0,0.0,76,0.00,,,0.00,WeatherDisplay:10.37,2013-05-28 02:59:00,
2013-05-27 23:14:00,71.3,63.7,30.10,North,360,0.0,0.0,77,0.00,,,0.00,WeatherDisplay:10.37,2013-05-28 03:14:00,
2013-05-27 23:29:00,71.1,63.9,30.10,North,360,0.0,0.0,78,0.00,,,0.00,WeatherDisplay:10.37,2013-05-28 03:29:00,
2013-05-27 23:44:00,70.9,64.1,30.10,North,360,0.0,0.0,79,0.00,,,0.00,WeatherDisplay:10.37,2013-05-28 03:44:00,
2013-05-27 23:59:00,70.6,63.8,30.10,North,360,0.0,0.0,79,0.00,,,0.00,WeatherDisplay:10.37,2013-05-28 03:59:00,